Starlink 31364

operational
NORAD ID: 59463 Int'l Des: 2024-068 Owner: SPXS Country: US Constellation: starlink
LEOCIRCULAR

About Starlink 31364

Description loading...

Live Position

Loading 3D Globe...

Upcoming Passes

Altitude History

Altitude vs Time

uPlot chart will show altitude changes over time

Two-Line Element Set

1 59463U 24068J 26033.56891273 -.00000008 00000-0 92177-5 0 9992
2 59463 42.9997 229.2134 0001025 277.2147 82.8588 15.27579178103195
Epoch: Feb 2, 2026 • Age: 23 hours

Current Status

Altitude 488.7 km
Velocity 7.62 km/s
Sub-Earth Point -25.10°S, 135.38°W
Launch Date Apr 10, 2024
Age 1.8 years
Type internet

Technical Details

Classification Payload
Mass 730.00 kg
Dry Mass 700.00 kg
Total Mass 730.00 kg
Length 0.30 m
Diameter 4.10 m
Span 29.00 m
Shape Box + pan
Manufacturer SPXS
Bus Type Starlink V2M
Phase Status In Orbit
Owner/State SPXS/US

Large Constellations

Loading constellations...